Weather History for Galax, VA

Change the Weather History Date:

Wednesday, October 17, 2012

  Actual Average (KBLF) Record (KBLF)
Temperature  
Mean Temperature 54 °F 56 °F  
Max Temperature 66 °F 65 °F 78 °F (2000)
Min Temperature 42 °F 47 °F 30 °F (1970)
Degree Days  
Heating Degree Days 11 9  
Month to date heating degree days 129  
Since 1 July heating degree days 208  
Cooling Degree Days 0 0  
Month to date cooling degree days 16  
Year to date cooling degree days 848  
Growing Degree Days 4 (Base 50)    
Moisture  
Dew Point 44 °F    
Average Humidity 68    
Maximum Humidity 87    
Minimum Humidity 45    
Precipitation  
Precipitation 0.00 in 0.07 in 1.03 in (1989)
Month to date precipitation 1.39  
Year to date precipitation 32.92  
Snow  
Snow 0.00 in - - ()
Month to date snowfall  
Since 1 July snowfall  
Since 1 September snowfall  
Snow Depth -    
Sea Level Pressure  
Sea Level Pressure 29.98 in    
Wind  
Wind Speed 5 mph (South)    
Max Wind Speed 10 mph    
Max Gust Speed 18 mph    
Visibility 10 miles    
Events      
T = Trace of Precipitation, MM = Missing Value Source: NWS Daily Summary

Daily Weather History Graph

Daily Weather History Graph

Search for Another Location

Airport:

Trip Planner

Search our weather history database for the weather conditions in past years. The results will help you decide how hot, cold, wet, or windy it might be!

Date:

Astronomy

Oct. 17, 2012 Rise Set
Actual Time 7:33 AM EDT 6:43 PM EDT
Civil Twilight 7:06 AM EDT 7:09 PM EDT
Nautical Twilight 6:36 AM EDT 7:39 PM EDT
Astronomical Twilight 6:06 AM EDT 8:09 PM EDT
Moon 10:00 AM EDT (10/17) 8:23 PM EDT (10/17)
Length of Visible Light 12h 02m
Length of Day
11h 10m
Waxing Crescent, 7% of the Moon is Illuminated
Oct 17
Waxing Crescent
Oct 21
First Quarter
Oct 29
Full
Nov 6
Last Quarter
Nov 13
New

Hourly Weather History & Observations

Time (EDT) Temp. Windchill Dew Point Humidity Pressure Visibility Wind Dir Wind Speed Gust Speed Precip Events Conditions
12:15 AM 51.8 °F - 39.2 °F 62% 29.97 in 10.0 mi South 3.5 mph - N/A   Clear
12:35 AM 51.8 °F - 39.2 °F 62% 29.97 in 10.0 mi South 4.6 mph - N/A   Clear
12:55 AM 51.8 °F - 39.2 °F 62% 29.97 in 10.0 mi SSW 5.8 mph - N/A   Clear
1:15 AM 50.0 °F - 39.2 °F 66% 29.98 in 10.0 mi SSW 3.5 mph - N/A   Clear
1:35 AM 51.8 °F - 39.2 °F 62% 29.98 in 10.0 mi SSW 4.6 mph - N/A   Clear
1:55 AM 51.8 °F - 39.2 °F 62% 29.98 in 10.0 mi SSW 3.5 mph - N/A   Clear
2:15 AM 50.0 °F - 39.2 °F 66% 29.97 in 10.0 mi Calm Calm - N/A   Clear
2:35 AM 48.2 °F - 39.2 °F 71% 29.97 in 10.0 mi SSW 4.6 mph - N/A   Clear
2:55 AM 46.4 °F 44.3 °F 39.2 °F 76% 29.97 in 10.0 mi South 4.6 mph - N/A   Clear
3:15 AM 46.4 °F 43.5 °F 41.0 °F 81% 29.97 in 10.0 mi SSW 5.8 mph - N/A   Clear
3:35 AM 46.4 °F 44.3 °F 41.0 °F 81% 29.97 in 10.0 mi SSW 4.6 mph - N/A   Clear
3:55 AM 46.4 °F 43.5 °F 41.0 °F 81% 29.96 in 10.0 mi SSW 5.8 mph - N/A   Clear
4:15 AM 44.6 °F 41.4 °F 41.0 °F 87% 29.97 in 10.0 mi SSW 5.8 mph - N/A   Clear
4:35 AM 44.6 °F - 41.0 °F 87% 29.97 in 10.0 mi Calm Calm - N/A   Clear
4:55 AM 44.6 °F 42.2 °F 41.0 °F 87% 29.97 in 10.0 mi SW 4.6 mph - N/A   Clear
5:15 AM 44.6 °F 42.2 °F 39.2 °F 81% 29.98 in 10.0 mi SW 4.6 mph - N/A   Clear
5:35 AM 44.6 °F 42.2 °F 41.0 °F 87% 29.98 in 10.0 mi SW 4.6 mph - N/A   Clear
5:55 AM 42.8 °F 39.3 °F 39.2 °F 87% 29.98 in 10.0 mi SSW 5.8 mph - N/A   Clear
6:15 AM 42.8 °F 40.1 °F 39.2 °F 87% 29.99 in 10.0 mi South 4.6 mph - N/A   Clear
6:35 AM 42.8 °F 41.1 °F 39.2 °F 87% 29.99 in 10.0 mi SSW 3.5 mph - N/A   Clear
6:55 AM 42.8 °F 41.1 °F 39.2 °F 87% 29.99 in 10.0 mi SSW 3.5 mph - N/A   Clear
7:15 AM 42.8 °F 41.1 °F 39.2 °F 87% 30.00 in 10.0 mi South 3.5 mph - N/A   Clear
7:35 AM 42.8 °F 41.1 °F 39.2 °F 87% 30.00 in 10.0 mi SSW 3.5 mph - N/A   Clear
7:55 AM 42.8 °F 40.1 °F 39.2 °F 87% 30.00 in 10.0 mi SSW 4.6 mph - N/A   Clear
8:15 AM 42.8 °F 40.1 °F 39.2 °F 87% 30.01 in 10.0 mi SSW 4.6 mph - N/A   Clear
8:35 AM 42.8 °F 39.3 °F 39.2 °F 87% 30.02 in 10.0 mi SW 5.8 mph - N/A   Clear
8:55 AM 42.8 °F 40.1 °F 39.2 °F 87% 30.02 in 10.0 mi SSW 4.6 mph - N/A   Clear
9:15 AM 44.6 °F 42.2 °F 41.0 °F 87% 30.03 in 10.0 mi SW 4.6 mph - N/A   Clear
9:35 AM 44.6 °F - 41.0 °F 87% 30.03 in 7.0 mi Calm Calm - N/A   Clear
9:55 AM 46.4 °F - 42.8 °F 87% 30.03 in 10.0 mi Calm Calm - N/A   Clear
10:15 AM 48.2 °F - 44.6 °F 87% 30.04 in 10.0 mi Calm Calm - N/A   Clear
10:35 AM 51.8 °F - 44.6 °F 76% 30.04 in 10.0 mi Calm Calm - N/A   Clear
10:55 AM 57.2 °F - 46.4 °F 67% 30.03 in 10.0 mi SSW 3.5 mph - N/A   Clear
11:15 AM 59.0 °F - 44.6 °F 59% 30.02 in 10.0 mi SE 3.5 mph - N/A   Clear
11:35 AM 60.8 °F - 46.4 °F 59% 30.02 in 10.0 mi South 3.5 mph - N/A   Clear
11:55 AM 62.6 °F - 44.6 °F 52% 30.02 in 10.0 mi SW 8.1 mph - N/A   Clear
12:15 PM 64.4 °F - 42.8 °F 45% 30.01 in 10.0 mi South 5.8 mph - N/A   Clear
12:35 PM 64.4 °F - 44.6 °F 49% 30.01 in 10.0 mi SSE 3.5 mph - N/A   Clear
12:55 PM 66.2 °F - 46.4 °F 49% 30.00 in 10.0 mi South 8.1 mph - N/A   Clear
1:15 PM 66.2 °F - 46.4 °F 49% 30.00 in 10.0 mi SSE 5.8 mph - N/A   Clear
1:35 PM 66.2 °F - 44.6 °F 46% 29.99 in 10.0 mi South 9.2 mph - N/A   Clear
1:55 PM 66.2 °F - 44.6 °F 46% 29.98 in 10.0 mi SSE 8.1 mph 17.3 mph N/A   Clear
2:15 PM 66.2 °F - 46.4 °F 49% 29.97 in 10.0 mi South 9.2 mph 17.3 mph N/A   Clear
2:35 PM 66.2 °F - 46.4 °F 49% 29.96 in 10.0 mi SSE 9.2 mph - N/A   Clear
2:55 PM 66.2 °F - 46.4 °F 49% 29.95 in 10.0 mi South 6.9 mph - N/A   Clear
3:15 PM 66.2 °F - 46.4 °F 49% 29.95 in 10.0 mi South 10.4 mph - N/A   Clear
3:35 PM 66.2 °F - 46.4 °F 49% 29.95 in 10.0 mi South 9.2 mph - N/A   Clear
3:55 PM 66.2 °F - 46.4 °F 49% 29.95 in 10.0 mi South 10.4 mph 17.3 mph N/A   Clear
4:15 PM 66.2 °F - 46.4 °F 49% 29.95 in 10.0 mi South 6.9 mph 16.1 mph N/A   Clear
4:35 PM 66.2 °F - 46.4 °F 49% 29.94 in 10.0 mi South 5.8 mph - N/A   Clear
4:55 PM 64.4 °F - 46.4 °F 52% 29.95 in 10.0 mi SSE 10.4 mph - N/A   Clear
5:15 PM 66.2 °F - 46.4 °F 49% 29.95 in 10.0 mi South 5.8 mph - N/A   Clear
5:35 PM 64.4 °F - 46.4 °F 52% 29.96 in 10.0 mi South 8.1 mph - N/A   Clear
5:55 PM 62.6 °F - 46.4 °F 55% 29.96 in 10.0 mi South 5.8 mph - N/A   Clear
6:15 PM 62.6 °F - 46.4 °F 55% 29.96 in 10.0 mi SSE 6.9 mph - N/A   Clear
6:35 PM 60.8 °F - 46.4 °F 59% 29.95 in 10.0 mi SSE 5.8 mph - N/A   Clear
7:15 PM 59.0 °F - 46.4 °F 63% 29.95 in 10.0 mi SSE 4.6 mph - N/A   Clear
7:35 PM 59.0 °F - 46.4 °F 63% 29.96 in 10.0 mi South 5.8 mph - N/A   Clear
7:55 PM 59.0 °F - 46.4 °F 63% 29.97 in 10.0 mi South 5.8 mph - N/A   Clear
8:15 PM 57.2 °F - 46.4 °F 67% 29.97 in 10.0 mi South 6.9 mph - N/A   Clear
8:35 PM 57.2 °F - 46.4 °F 67% 29.97 in 10.0 mi South 5.8 mph - N/A   Clear
8:55 PM 57.2 °F - 46.4 °F 67% 29.97 in 10.0 mi SSE 4.6 mph - N/A   Clear
9:15 PM 57.2 °F - 46.4 °F 67% 29.97 in 10.0 mi SSE 6.9 mph - N/A   Clear
9:35 PM 57.2 °F - 46.4 °F 67% 29.97 in 10.0 mi South 6.9 mph - N/A   Clear
9:55 PM 57.2 °F - 46.4 °F 67% 29.97 in 10.0 mi SSE 8.1 mph - N/A   Clear
10:15 PM 57.2 °F - 46.4 °F 67% 29.96 in 10.0 mi SSE 5.8 mph - N/A   Clear
10:35 PM 55.4 °F - 48.2 °F 77% 29.96 in 10.0 mi SSE 8.1 mph 16.1 mph N/A   Clear
10:55 PM 55.4 °F - 48.2 °F 77% 29.96 in 10.0 mi South 10.4 mph 16.1 mph N/A   Clear
11:15 PM 55.4 °F - 48.2 °F 77% 29.95 in 10.0 mi SSE 10.4 mph 18.4 mph N/A   Clear
11:35 PM 55.4 °F - 48.2 °F 77% 29.94 in 10.0 mi SSE 8.1 mph 16.1 mph N/A   Clear
11:55 PM 55.4 °F - 48.2 °F 77% 29.93 in 10.0 mi South 5.8 mph - N/A   Clear